Windom, MN

1:51 AM CST on November 23, 2017 (GMT -0600)
Windom Municipal

Weather History for KMWM - December, 2011

Change the Weather History Date:

Tuesday, December 6, 2011

  Actual Average Record
Temperature  
Mean Temperature 0 °F -  
Max Temperature 12 °F 29 °F 57 °F (1963)
Min Temperature -11 °F 10 °F -18 °F (1972)
Degree Days  
Heating Degree Days 64    
Moisture  
Dew Point -4 °F    
Average Humidity 83    
Maximum Humidity 92    
Minimum Humidity 73    
Precipitation  
Precipitation 0.00 in - - ()
Sea Level Pressure  
Sea Level Pressure 30.28 in    
Wind  
Wind Speed 4 mph (SW)    
Max Wind Speed 14 mph    
Max Gust Speed -    
Visibility 10 miles    
Events Snow    
Averages and records for this station are not official NWS values.
T = Trace of Precipitation, MM = Missing Value Source: NWS Daily Summary

Daily Weather History Graph

Daily Weather History Graph

Search for Another Location

Airport or City:

Trip Planner

Search our weather history database for the weather conditions in past years. The results will help you decide how hot, cold, wet, or windy it might be!

Date:

Astronomy

Dec. 06, 2011 Rise Set
Actual Time 7:39 AM CST 4:42 PM CST
Civil Twilight 7:07 AM CST 5:15 PM CST
Nautical Twilight 6:31 AM CST 5:51 PM CST
Astronomical Twilight 5:56 AM CST 6:26 PM CST
Moon 2:14 PM CST (12/6) 3:54 AM CST (12/6)
Length of Visible Light 10h 08m
Length of Day
9h 02m
Waxing Gibbous, 87% of the Moon is Illuminated
Dec 6
Waxing Gibbous
Dec 10
Full
Dec 17
Last Quarter
Dec 24
New
Jan 1
First Quarter

Hourly Weather History & Observations

Time (CST) Temp. Windchill Dew Point Humidity Pressure Visibility Wind Dir Wind Speed Gust Speed Precip Events Conditions
12:12 AM -0.4 °F - -4.0 °F 85% 30.44 in 10.0 mi Calm Calm - N/A   Overcast
12:32 AM -0.4 °F -10.4 °F -4.0 °F 85% 30.43 in 10.0 mi WNW 4.6 mph - N/A   Overcast
12:53 AM 1.4 °F -8.3 °F -2.2 °F 85% 30.43 in 10.0 mi WNW 4.6 mph - N/A Snow Light Snow
1:12 AM 1.4 °F -9.9 °F -2.2 °F 85% 30.42 in 10.0 mi West 5.8 mph - N/A   Overcast
1:32 AM -2.2 °F -14.2 °F -5.8 °F 85% 30.42 in 10.0 mi West 5.8 mph - N/A   Overcast
1:53 AM -2.2 °F -14.2 °F -7.6 °F 78% 30.42 in 10.0 mi WNW 5.8 mph - N/A   Overcast
2:12 AM -4.0 °F -16.3 °F -5.8 °F 92% 30.42 in 10.0 mi West 5.8 mph - N/A   Mostly Cloudy
2:32 AM -5.8 °F - -7.6 °F 92% 30.41 in 10.0 mi Calm Calm - N/A   Mostly Cloudy
2:53 AM -5.8 °F -18.4 °F -9.4 °F 84% 30.41 in 10.0 mi West 5.8 mph - N/A   Mostly Cloudy
3:12 AM -5.8 °F - -7.6 °F 92% 30.41 in 10.0 mi Calm Calm - N/A   Scattered Clouds
3:32 AM -7.6 °F - -9.4 °F 92% 30.40 in 10.0 mi Calm Calm - N/A   Clear
3:53 AM -5.8 °F - -7.6 °F 92% 30.39 in 10.0 mi Calm Calm - N/A   Clear
4:12 AM -7.6 °F - -9.4 °F 92% 30.38 in 10.0 mi Calm Calm - N/A   Clear
4:32 AM -9.4 °F -18.6 °F -13.0 °F 84% 30.37 in 10.0 mi West 3.5 mph - N/A   Clear
4:53 AM -9.4 °F -18.6 °F -11.2 °F 92% 30.36 in 10.0 mi West 3.5 mph - N/A   Clear
5:12 AM -9.4 °F - -11.2 °F 92% 30.37 in 10.0 mi Calm Calm - N/A   Clear
5:33 AM -7.6 °F - -9.4 °F 92% 30.36 in 10.0 mi Calm Calm - N/A   Clear
5:52 AM -9.4 °F - -11.2 °F 92% 30.35 in 10.0 mi Calm Calm - N/A   Clear
6:12 AM -9.4 °F - -13.0 °F 84% 30.35 in 7.0 mi Calm Calm - N/A   Clear
6:52 AM -11.2 °F - -14.8 °F 84% 30.34 in 10.0 mi Calm Calm - N/A   Clear
7:12 AM -11.2 °F - -14.8 °F 84% 30.33 in 10.0 mi Calm Calm - N/A   Clear
7:33 AM -11.2 °F - -14.8 °F 84% 30.33 in 10.0 mi Calm Calm - N/A   Clear
7:52 AM -11.2 °F -20.6 °F -14.8 °F 84% 30.32 in 10.0 mi West 3.5 mph - N/A   Clear
8:12 AM -9.4 °F - -11.2 °F 92% 30.32 in 10.0 mi Calm Calm - N/A   Clear
8:33 AM -11.2 °F -20.6 °F -14.8 °F 84% 30.32 in 10.0 mi West 3.5 mph - N/A   Clear
8:52 AM -7.6 °F - -11.2 °F 84% 30.32 in 5.0 mi Calm Calm - N/A   Clear
9:12 AM -5.8 °F - -9.4 °F 84% 30.31 in 10.0 mi Calm Calm - N/A   Clear
9:32 AM -0.4 °F - -4.0 °F 85% 30.30 in 10.0 mi Calm Calm - N/A   Clear
9:52 AM 1.4 °F - -0.4 °F 92% 30.29 in 10.0 mi Calm Calm - N/A   Clear
10:13 AM 3.2 °F -4.2 °F 1.4 °F 92% 30.29 in 10.0 mi SSW 3.5 mph - N/A   Clear
10:32 AM 5.0 °F -2.1 °F 1.4 °F 85% 30.29 in 10.0 mi SSW 3.5 mph - N/A   Clear
10:52 AM 6.8 °F -3.5 °F 1.4 °F 79% 30.29 in 10.0 mi SSW 5.8 mph - N/A   Clear
11:13 AM 8.6 °F -3.7 °F 1.4 °F 73% 30.28 in 10.0 mi SSW 8.1 mph - N/A   Clear
11:32 AM 8.6 °F -4.7 °F 3.2 °F 79% 30.27 in 10.0 mi SSW 9.2 mph - N/A   Clear
11:52 AM 8.6 °F -4.7 °F 3.2 °F 79% 30.26 in 10.0 mi South 9.2 mph - N/A   Clear
12:13 PM 10.4 °F -1.5 °F 3.2 °F 73% 30.24 in 10.0 mi South 8.1 mph - N/A   Clear
12:33 PM 10.4 °F -4.1 °F 3.2 °F 73% 30.23 in 10.0 mi South 11.5 mph - N/A   Clear
12:52 PM 10.4 °F -4.1 °F 5.0 °F 79% 30.22 in 10.0 mi SSW 11.5 mph - N/A   Clear
1:32 PM 12.2 °F -1.8 °F 5.0 °F 73% 30.19 in 10.0 mi South 11.5 mph - N/A   Clear
1:52 PM 12.2 °F -3.1 °F 5.0 °F 73% 30.18 in 10.0 mi SSW 13.8 mph - N/A   Clear
2:13 PM 12.2 °F -1.8 °F 5.0 °F 73% 30.17 in 10.0 mi SSW 11.5 mph - N/A   Clear
2:33 PM 10.4 °F -5.4 °F 5.0 °F 79% 30.16 in 10.0 mi SSW 13.8 mph - N/A   Clear
2:52 PM 10.4 °F -4.8 °F 5.0 °F 79% 30.15 in 10.0 mi SSW 12.7 mph - N/A   Clear
3:13 PM 10.4 °F -3.3 °F 5.0 °F 79% 30.15 in 10.0 mi SSW 10.4 mph - N/A   Clear
3:32 PM 10.4 °F -2.4 °F 3.2 °F 73% 30.14 in 10.0 mi SSW 9.2 mph - N/A   Clear
3:52 PM 8.6 °F -4.7 °F 3.2 °F 79% 30.14 in 10.0 mi SSW 9.2 mph - N/A   Clear
4:13 PM 8.6 °F -3.7 °F 3.2 °F 79% 30.13 in 10.0 mi South 8.1 mph - N/A   Clear
4:33 PM 8.6 °F -4.7 °F 3.2 °F 79% 30.12 in 10.0 mi South 9.2 mph - N/A   Clear
4:52 PM 6.8 °F -6.9 °F 1.4 °F 79% 30.11 in 10.0 mi South 9.2 mph - N/A   Clear
5:13 PM 6.8 °F -7.8 °F 1.4 °F 79% 30.10 in 10.0 mi South 10.4 mph - N/A   Clear
5:33 PM 6.8 °F -10.0 °F 1.4 °F 79% 30.09 in 10.0 mi South 13.8 mph - N/A   Clear
5:52 PM 6.8 °F -9.3 °F 1.4 °F 79% 30.08 in 10.0 mi South 12.7 mph - N/A   Clear
6:13 PM 5.0 °F -11.6 °F 1.4 °F 85% 30.07 in 10.0 mi South 12.7 mph - N/A   Clear
6:32 PM 6.8 °F -10.0 °F 1.4 °F 79% 30.05 in 10.0 mi South 13.8 mph 18.4 mph N/A   Clear
6:52 PM 6.8 °F -11.8 °F 1.4 °F 79% 30.03 in 10.0 mi South 17.3 mph 21.9 mph N/A   Clear
7:13 PM 6.8 °F -12.9 °F 1.4 °F 79% 30.03 in 10.0 mi South 19.6 mph - N/A   Clear
7:32 PM 6.8 °F -11.3 °F 1.4 °F 79% 30.03 in 10.0 mi South 16.1 mph - N/A   Clear
7:52 PM 6.8 °F -10.0 °F 1.4 °F 79% 30.03 in 10.0 mi South 13.8 mph - N/A   Clear
8:13 PM 6.8 °F -9.3 °F 1.4 °F 79% 30.03 in 10.0 mi South 12.7 mph - N/A   Clear
8:32 PM 6.8 °F -9.3 °F 1.4 °F 79% 30.03 in 10.0 mi SSW 12.7 mph - N/A   Clear
8:52 PM 6.8 °F -12.4 °F 1.4 °F 79% 30.02 in 10.0 mi SSW 18.4 mph - N/A   Clear
9:13 PM 6.8 °F -12.4 °F 1.4 °F 79% 30.01 in 10.0 mi SSW 18.4 mph 24.2 mph N/A   Clear
9:32 PM 5.0 °F -14.7 °F 1.4 °F 85% 30.00 in 10.0 mi SSW 18.4 mph - N/A   Clear
9:53 PM 6.8 °F -12.4 °F 1.4 °F 79% 30.00 in 10.0 mi SSW 18.4 mph 24.2 mph N/A   Clear
10:13 PM 6.8 °F -12.9 °F 3.2 °F 85% 29.98 in 10.0 mi SSW 19.6 mph 23.0 mph N/A   Scattered Clouds
10:32 PM 8.6 °F -10.0 °F 3.2 °F 79% 29.98 in 10.0 mi SSW 18.4 mph - N/A   Overcast
10:53 PM 8.6 °F -10.5 °F 5.0 °F 85% 29.98 in 10.0 mi SSW 19.6 mph 26.5 mph N/A   Overcast
11:13 PM 10.4 °F -8.6 °F 5.0 °F 79% 29.97 in 10.0 mi SSW 20.7 mph - N/A   Overcast
11:32 PM 10.4 °F -9.1 °F 6.8 °F 85% 29.96 in 10.0 mi SSW 21.9 mph - N/A   Overcast
11:53 PM 10.4 °F -8.2 °F 6.8 °F 85% 29.95 in 10.0 mi SSW 19.6 mph 26.5 mph N/A   Mostly Cloudy